This demonstration page uses our WeatherBlox Daily Observations layout. Learn more.

Left ArrowRight Arrow

39.51506, -84.39828

Hourly Observations for March 2, 2015

Temp ( °F °C ) Dew Point ( °F °C ) Humidity (%) Winds ( mph kmh ) Pressure ( in mb ) Visibility ( mi km ) Precip ( " mm )
12:15 am 00:15 Clear 32 undefined 24 -4.2 74 74 WNW 13 20 30.39 1029 10 16 N/A
12:35 am 00:35 Mostly Cloudy 31 -0.7 23 -4.8 74 74 NW 13 20 30.39 1029 10 16 N/A
12:55 am 00:55 Mostly Cloudy 29 -1.5 22 -5.6 74 74 NW 9 15 30.39 1029 10 16 N/A
1:15 am 01:15 Cloudy 29 -1.5 22 -5.7 73 73 WNW 10 17 30.39 1029 10 16 N/A
1:35 am 01:35 Cloudy 29 -1.5 22 -5.6 74 74 W 9 15 30.42 1030 10 16 N/A
1:55 am 01:55 Mostly Cloudy 29 -1.5 22 -5.6 74 74 WNW 7 11 30.42 1030 10 16 N/A
2:15 am 02:15 Partly Cloudy 29 -1.7 20 -6.4 71 71 NW 12 19 30.42 1030 10 16 N/A
2:35 am 02:35 Clear 27 -2.8 19 -7.4 71 71 undefined N/A N/A 10 16 N/A
2:55 am 02:55 Clear 27 -3 19 -7.4 72 72 WNW 9 15 30.42 1030 10 16 N/A
3:15 am 03:15 Clear 24 -4.2 17 -8.5 72 72 WNW 5 7 30.48 1032 10 16 N/A
3:35 am 03:35 Clear 24 -4.2 17 -8.5 72 72 WNW 6 9 30.48 1032 10 16 N/A
3:55 am 03:55 Clear 23 -4.8 16 -9 73 73 W 5 7 30.48 1032 10 16 N/A
4:15 am 04:15 Clear 24 -4.7 16 -9 72 72 N N/A 30.48 1032 10 16 N/A
4:35 am 04:35 Clear 23 -5.2 15 -9.5 72 72 W 3 6 30.50 1033 10 16 N/A
4:55 am 04:55 Clear N/A N/A N/A W 5 7 N/A 10 16 N/A
5:15 am 05:15 Clear 23 -5.2 15 -9.3 73 73 WNW 6 9 30.50 1033 10 16 N/A
5:35 am 05:35 Clear 23 -5 15 -9.2 73 73 NW 7 11 30.53 1034 10 16 N/A
5:55 am 05:55 Clear 23 -4.8 15 -9.5 70 70 NNW 6 9 30.53 1034 10 16 N/A
6:15 am 06:15 Clear 23 -5.2 14 -10 69 69 NW 7 11 30.53 1034 10 16 N/A
6:35 am 06:35 Clear 23 -5.1 14 -10.1 68 68 NNW 6 9 30.56 1035 10 16 N/A
6:55 am 06:55 Clear 22 -5.5 13 -10.5 68 68 N 5 7 30.56 1035 10 16 N/A
7:15 am 07:15 Sunny 22 -5.6 13 -10.5 69 69 N N/A 30.56 1035 10 16 N/A
7:35 am 07:35 Sunny 21 -6 13 -10.7 70 70 N N/A 30.56 1035 10 16 N/A
7:55 am 07:55 Sunny 21 -6.3 13 -10.7 71 71 N N/A 30.56 1035 10 16 N/A
8:15 am 08:15 Sunny 21 -6.1 13 -10.7 70 70 N N/A 30.59 1036 10 16 N/A
8:35 am 08:35 Sunny 22 -5.8 13 -10.6 69 69 N N/A 30.59 1036 10 16 N/A
8:55 am 08:55 Sunny 21 -5.9 12 -10.9 68 68 N N/A 30.59 1036 10 16 N/A
9:15 am 09:15 Sunny 23 -5.1 13 -10.8 65 65 N N/A 30.59 1036 10 16 N/A
9:35 am 09:35 Sunny 24 -4.2 13 -10.5 62 62 N N/A 30.62 1037 10 16 N/A
9:55 am 09:55 Sunny 27 -2.8 14 -10.1 58 58 N 3 6 30.62 1037 10 16 N/A
10:15 am 10:15 Sunny 29 -1.5 15 -9.3 56 56 NNE 3 6 30.59 1036 10 16 N/A
10:35 am 10:35 Sunny 29 -1.5 15 -9.6 54 54 N N/A 30.59 1036 10 16 N/A
10:55 am 10:55 Sunny 29 -1.5 15 -9.7 54 54 N N/A 30.59 1036 10 16 N/A
11:15 am 11:15 Sunny 30 -1.2 13 -10.5 50 50 N N/A 30.59 1036 10 16 N/A
11:35 am 11:35 Sunny 31 -0.8 13 -10.6 48 48 N N/A 30.59 1036 10 16 N/A
11:55 am 11:55 Sunny 32 undefined 13 -10.5 45 45 N N/A 30.59 1036 10 16 N/A
12:15 pm 12:15 Sunny 32 undefined 13 -10.8 44 44 N N/A 30.59 1036 10 16 N/A
12:35 pm 12:35 Sunny 33 0.3 13 -10.4 45 45 ENE 6 9 30.59 1036 10 16 N/A
12:55 pm 12:55 Sunny 34 1.2 14 -9.8 44 44 E 6 9 30.56 1035 10 16 N/A
1:15 pm 13:15 Sunny 34 1.2 14 -10.2 43 43 ENE 6 9 30.56 1035 10 16 N/A
1:35 pm 13:35 Sunny 34 1.2 13 -10.4 42 42 E 7 11 30.53 1034 10 16 N/A
1:55 pm 13:55 Sunny 34 1.2 13 -10.4 42 42 ENE 7 11 30.53 1034 10 16 N/A
2:15 pm 14:15 Sunny 34 1.2 13 -10.5 42 42 ENE 7 11 30.53 1034 10 16 N/A
2:35 pm 14:35 Sunny 34 1.2 13 -10.3 42 42 NNE 6 9 30.50 1033 10 16 N/A
2:55 pm 14:55 Sunny 34 1.2 11 -11.8 38 38 N 5 7 30.50 1033 10 16 N/A
3:15 pm 15:15 Sunny 34 1.2 11 -11.4 39 39 NE 5 7 30.50 1033 10 16 N/A
3:35 pm 15:35 Sunny 34 1.2 14 -10.2 43 43 ENE 6 9 30.50 1033 10 16 N/A
3:55 pm 15:55 Sunny 34 1.2 12 -11.2 39 39 N N/A 30.50 1033 10 16 N/A
4:15 pm 16:15 Sunny 34 1.2 13 -10.5 42 42 NE 3 6 30.50 1033 10 16 N/A
4:35 pm 16:35 Sunny 34 1.2 13 -10.3 42 42 N 5 7 30.48 1032 10 16 N/A
4:55 pm 16:55 Sunny 34 1.2 14 -10.1 43 43 NNE 3 6 30.48 1032 10 16 N/A
5:15 pm 17:15 Sunny 34 1.2 13 -10.4 42 42 N N/A 30.48 1032 10 16 N/A
5:35 pm 17:35 Sunny 32 undefined 12 -11.1 43 43 N N/A 30.50 1033 10 16 N/A
5:55 pm 17:55 Sunny 32 undefined 12 -11.3 43 43 NNW 5 7 30.48 1032 10 16 N/A
6:15 pm 18:15 Sunny 30 -1 12 -11.3 46 46 N 6 9 30.48 1032 10 16 N/A
6:35 pm 18:35 Clear 29 -1.5 11 -11.4 47 47 N 5 7 30.48 1032 10 16 N/A
6:55 pm 18:55 Clear 29 -1.5 12 -11 49 49 N N/A 30.50 1033 10 16 N/A
7:15 pm 19:15 Clear 29 -1.5 13 -10.4 51 51 N N/A 30.48 1032 10 16 N/A
7:35 pm 19:35 Clear 29 -1.5 14 -10.2 52 52 NE 3 6 30.48 1032 10 16 N/A
7:55 pm 19:55 Clear 28 -2.4 14 -9.9 57 57 NNE 3 6 30.48 1032 10 16 N/A
8:15 pm 20:15 Clear 29 -1.5 16 -9.1 57 57 N N/A 30.48 1032 10 16 N/A
8:35 pm 20:35 Clear 27 -2.7 15 -9.6 59 59 N N/A 30.48 1032 10 16 N/A
8:55 pm 20:55 Partly Cloudy 27 -2.8 14 -9.8 59 59 N N/A 30.45 1031 10 16 N/A
9:15 pm 21:15 Partly Cloudy 27 -2.8 16 -8.9 63 63 N N/A 30.45 1031 10 16 N/A
9:35 pm 21:35 Partly Cloudy 27 -2.8 17 -8.6 65 65 N N/A 30.45 1031 10 16 N/A
9:55 pm 21:55 Clear 27 -2.8 15 -9.3 61 61 ENE 3 6 30.45 1031 10 16 N/A
10:15 pm 22:15 Partly Cloudy 27 -2.8 17 -8.6 65 65 NE 5 7 30.42 1030 10 16 N/A
10:35 pm 22:35 Partly Cloudy 27 -2.8 16 -8.9 63 63 NE 3 6 30.42 1030 10 16 N/A
10:55 pm 22:55 Partly Cloudy 27 -2.8 15 -9.4 61 61 NNE 3 6 30.42 1030 10 16 N/A
11:15 pm 23:15 Clear 27 -2.8 15 -9.3 61 61 NE 3 6 30.42 1030 10 16 N/A
11:35 pm 23:35 Clear 27 -2.8 16 -8.8 64 64 NE 5 7 30.39 1029 10 16 N/A
11:55 pm 23:55 Clear 27 -2.8 15 -9.3 61 61 E 5 7 30.36 1028 10 16 N/A

Powered by AerisWeather